Location: Spring Creek
(38.2870°N, 100.2160°W)
Time: 13:11:11
(UTC+00:00)

SL-16 R/B - Pass Details

Date: 08 May 2021
Orbit: 984 x 1007 km, 99.5° (Epoch: 22 June)

Event Time Altitude Azimuth Distance (km) Brightness Sun altitude
Exits shadow 10:08:50 14° 270° (W) 2,468 4.2 -15.6°
Drops below altitude 10° 10:12:02 10° 301° (WNW) 2,787 4.7 -15.1°
Sets 10:15:55 0° 325° (NW) 3,742 5.6 -14.5°
